Date String (YYYY-MM-DD hh:mm:ss) UTC,Instrument flags,Ambient pressure (hPa),Sample flow (lpm),Bypass flow (lpm),Sample temperature (°C),Ambient temperature (°C),ASC tube jacket temperature (°C),LED temperature (°C),Box temperature (°C),Sample RH (%),Span deviation,Mass concentration (μg/m³),Mass concentration (μg/m³),Mass concentration (μg/m³)
DateTimeUTC,F1_M11,P_M11,Q1_M11,Q2_M11,T1_M11,T2_M11,T3_M11,T4_M11,T5_M11,U1_M11,ZSPAN_M11,X0_M11,X2_M11,X1_M11
2023-01-05 11:00:00,,0825.9,5.00,0.00,22.7,21.9,00.0,31.4,24.5,08.4,-000.8,0017.14,0011.81,0011.48
2023-01-05 11:01:00,,0826.1,4.99,0.00,22.7,21.6,00.0,31.4,24.4,08.4,-001.0,0016.81,0012.00,0011.66
2023-01-05 11:02:00,,0825.9,5.01,0.00,22.6,21.3,00.0,31.4,24.3,08.5,-000.5,0016.84,0012.13,0011.81
2023-01-05 11:03:00,,0825.7,5.00,0.00,22.6,21.1,00.0,31.4,24.2,08.4,-000.2,0016.64,0012.03,0011.73
2023-01-05 11:04:00,,0825.8,5.00,0.00,22.6,21.0,00.0,31.4,24.2,08.4,-000.2,0015.96,0011.79,0011.50
2023-01-05 11:05:00,,0826.1,4.99,0.00,22.5,20.9,00.0,31.4,24.2,08.4,-000.0,0015.61,0011.61,0011.30
2023-01-05 11:06:00,,0826.2,5.00,0.00,22.5,20.8,00.0,31.4,24.2,08.4,0000.2,0015.17,0011.41,0011.11
2023-01-05 11:07:00,,0826.1,5.00,0.00,22.4,20.7,00.0,31.4,24.1,08.4,0000.1,0014.57,0011.04,0010.76
2023-01-05 11:08:00,,0825.9,5.01,0.00,22.4,20.7,00.0,31.3,24.0,08.5,0000.0,0014.17,0010.70,0010.43
2023-01-05 11:09:00,,0825.7,5.00,0.00,22.4,20.7,00.0,31.3,24.0,08.5,0000.1,0014.03,0010.42,0010.13
2023-01-05 11:10:00,,0825.7,5.01,0.00,22.4,21.6,00.0,31.3,24.2,08.5,-000.1,0013.97,0010.12,0009.82
2023-01-05 11:11:00,,0825.7,5.00,0.00,22.6,22.5,00.0,31.2,24.5,08.5,0000.4,0013.71,0009.83,0009.52
2023-01-05 11:12:00,,0825.7,4.99,0.00,22.7,22.8,00.0,31.3,24.6,08.5,0000.7,0013.28,0009.53,0009.24
2023-01-05 11:13:00,,0825.7,4.99,0.00,22.7,22.4,00.0,31.3,24.5,08.5,0000.3,0013.03,0009.26,0008.96
2023-01-05 11:14:00,,0825.7,5.00,0.00,22.7,21.9,00.0,31.4,24.5,08.5,0000.2,0013.02,0009.23,0008.92
2023-01-05 11:15:00,,0825.7,5.01,0.00,22.6,21.6,00.0,31.4,24.3,08.6,0000.1,0013.07,0009.29,0009.01
2023-01-05 11:16:00,,0825.7,5.02,0.00,22.6,21.3,00.0,31.4,24.3,08.6,0000.0,0013.06,0009.37,0009.09
2023-01-05 11:17:00,,0825.6,5.01,0.00,22.6,21.1,00.0,31.4,24.2,08.6,0000.2,0013.17,0009.49,0009.20
2023-01-05 11:18:00,,0825.6,4.99,0.00,22.5,21.0,00.0,31.4,24.2,08.7,0000.1,0013.37,0009.62,0009.31
2023-01-05 11:19:00,,0825.6,5.01,0.00,22.5,20.9,00.0,31.4,24.2,08.7,0000.5,0013.42,0009.67,0009.38
2023-01-05 11:20:00,,0825.6,4.98,0.00,22.4,20.7,00.0,31.3,24.1,08.6,0001.3,0013.27,0009.69,0009.41
2023-01-05 11:21:00,,0825.6,4.99,0.00,22.4,20.6,00.0,31.3,24.0,08.7,0000.8,0013.17,0009.79,0009.50
2023-01-05 11:22:00,,0825.7,5.00,0.00,22.4,20.5,00.0,31.3,24.0,08.7,0001.1,0013.25,0009.88,0009.59
2023-01-05 11:23:00,,0825.8,5.02,0.00,22.4,21.2,00.0,31.2,24.1,08.7,0001.7,0013.34,0009.97,0009.67
2023-01-05 11:24:00,,0825.9,5.00,0.00,22.5,22.3,00.0,31.2,24.4,08.6,0002.6,0013.34,0010.01,0009.74
2023-01-05 11:25:00,,0825.7,5.00,0.00,22.6,22.9,00.0,31.2,24.6,08.6,0003.1,0013.29,0010.03,0009.78
2023-01-05 11:26:00,,0825.6,4.99,0.00,22.6,22.5,00.0,31.3,24.5,08.5,0003.3,0013.44,0010.10,0009.82
2023-01-05 11:27:00,,0825.7,5.00,0.00,22.6,22.1,00.0,31.3,24.4,08.5,0003.3,0013.62,0010.15,0009.84
2023-01-05 11:28:00,,0825.7,5.00,0.00,22.6,21.7,00.0,31.4,24.3,08.5,0003.2,0013.63,0010.14,0009.85
2023-01-05 11:29:00,,0825.7,5.00,0.00,22.6,21.4,00.0,31.4,24.3,08.4,0003.2,0013.64,0010.15,0009.86
2023-01-05 11:30:00,,0825.8,5.01,0.00,22.5,21.1,00.0,31.4,24.2,08.3,0003.5,0013.55,0010.08,0009.80
2023-01-05 11:31:00,,0825.7,5.00,0.00,22.5,20.9,00.0,31.3,24.1,08.3,0003.0,0013.51,0010.03,0009.74
2023-01-05 11:32:00,,0825.7,5.01,0.00,22.4,20.8,00.0,31.3,24.0,08.3,0002.7,0013.39,0009.96,0009.68
2023-01-05 11:33:00,,0825.7,5.00,0.00,22.4,20.7,00.0,31.3,23.9,08.3,0001.9,0013.21,0009.81,0009.54
2023-01-05 11:34:00,,0825.6,5.00,0.00,22.3,20.5,00.0,31.3,23.9,08.3,0002.0,0012.99,0009.61,0009.35
2023-01-05 11:35:00,,0825.7,4.99,0.00,22.3,20.5,00.0,31.2,23.9,08.3,0001.5,0012.81,0009.39,0009.12
2023-01-05 11:36:00,,0825.7,5.02,0.00,22.3,21.4,00.0,31.2,24.1,08.3,0001.3,0012.64,0009.21,0008.91
2023-01-05 11:37:00,,0825.8,5.00,0.00,22.4,22.4,00.0,31.2,24.4,08.2,0000.9,0012.40,0009.04,0008.75
2023-01-05 11:38:00,,0825.6,5.00,0.00,22.6,22.8,00.0,31.2,24.5,08.2,0000.8,0012.09,0008.89,0008.62
2023-01-05 11:39:00,,0825.6,4.99,0.00,22.6,22.4,00.0,31.3,24.5,08.2,0000.3,0011.97,0008.77,0008.49
2023-01-05 11:40:00,,0825.6,5.00,0.00,22.6,21.9,00.0,31.3,24.4,08.2,0000.1,0012.11,0008.61,0008.33
2023-01-05 11:41:00,,0825.6,4.99,0.00,22.5,21.5,00.0,31.3,24.3,08.2,0000.7,0012.36,0008.55,0008.24
2023-01-05 11:42:00,,0825.6,5.00,0.00,22.5,21.2,00.0,31.3,24.2,08.2,0002.2,0012.28,0008.49,0008.18
2023-01-05 11:43:00,,0825.7,5.00,0.00,22.5,21.0,00.0,31.3,24.1,08.1,0003.3,0012.22,0008.41,0008.08
2023-01-05 11:44:00,,0825.7,5.00,0.00,22.4,20.8,00.0,31.3,24.0,08.2,0003.8,0012.23,0008.37,0008.01
2023-01-05 11:45:00,,0825.7,5.00,0.00,22.4,20.7,00.0,31.3,23.9,08.2,0002.5,0012.32,0008.40,0008.02
2023-01-05 11:46:00,,0825.7,5.00,0.00,22.3,20.6,00.0,31.3,23.9,08.2,0001.4,0012.38,0008.44,0008.04
2023-01-05 11:47:00,,0825.6,5.00,0.00,22.3,20.5,00.0,31.2,23.8,08.2,0001.2,0012.34,0008.43,0008.05
2023-01-05 11:48:00,,0825.6,5.00,0.00,22.2,20.6,00.0,31.2,23.8,08.3,0000.0,0012.35,0008.41,0008.04
2023-01-05 11:49:00,,0825.6,5.01,0.00,22.3,21.5,00.0,31.1,24.0,08.2,0000.8,0012.34,0008.38,0008.00
2023-01-05 11:50:00,,0825.7,4.99,0.00,22.4,22.5,00.0,31.1,24.3,08.2,0001.5,0012.29,0008.33,0007.94
2023-01-05 11:51:00,,0825.6,5.00,0.00,22.5,23.1,00.0,31.2,24.5,08.1,0001.4,0012.01,0008.32,0007.92
2023-01-05 11:52:00,,0825.6,4.99,0.00,22.6,22.7,00.0,31.2,24.5,08.1,0000.3,0011.94,0008.30,0007.89
2023-01-05 11:53:00,,0825.5,5.00,0.00,22.5,22.0,00.0,31.3,24.3,08.1,0000.0,0012.37,0008.30,0007.83
2023-01-05 11:54:00,,0825.5,4.99,0.00,22.5,21.5,00.0,31.3,24.2,08.1,-000.2,0012.73,0008.28,0007.78
2023-01-05 11:55:00,,0825.5,5.01,0.00,22.4,21.1,00.0,31.3,24.1,08.0,-000.4,0013.45,0008.23,0007.71
2023-01-05 11:56:00,,0825.5,5.00,0.00,22.4,20.9,00.0,31.3,24.0,07.9,0000.0,0014.44,0008.14,0007.54
2023-01-05 11:57:00,,0825.5,5.01,0.00,22.3,20.7,00.0,31.2,23.9,07.9,0000.0,0014.92,0008.03,0007.36
2023-01-05 11:58:00,,0825.6,5.01,0.00,22.3,20.6,00.0,31.2,23.8,07.9,0000.0,0015.10,0007.92,0007.18
2023-01-05 11:59:00,,0825.6,5.00,0.00,22.2,20.5,00.0,31.2,23.8,07.9,0000.0,0015.20,0007.86,0007.03
